Theta_e
349 348 351 354 354 354 353 353 355 355 356 353 352 356 356 352 355 358 360 360 358 354 352 351 350 352 353 354 355 356 355 356 355 350 349 349 348 347 349 347 345 345 346 345 344 345 346 346 345 345 344 341 340 338 335 335 334 332 331 332 335 338 339 340 340 340 340 341 341 341 342 343 342 342 342 344 344 345 345 344 343 341 341 342 342 342 343 343 342 343 343 343 343 343 343 343 343
349 350 353 356 355 355 353 353 356 353 352 350 350 356 359 356 357 356 356 359 356 351 351 351 350 351 351 352 353 355 355 355 354 352 350 347 348 349 349 348 347 347 347 345 345 344 346 346 345 345 342 341 340 337 336 336 333 330 331 333 335 336 337 338 338 338 339 340 341 341 342 343 343 343 342 343 344 344 344 344 343 342 342 342 342 342 343 344 343 344 343 343 342 343 343 343 342
351 353 355 355 355 355 353 354 355 351 350 349 349 358 362 359 357 354 354 353 351 351 351 351 351 351 350 352 353 354 353 353 352 351 350 349 350 351 350 350 348 347 346 344 345 345 345 345 345 344 342 340 338 338 339 335 330 329 331 332 334 335 337 337 336 338 339 339 340 341 342 342 343 343 342 342 343 343 344 344 343 343 343 343 343 343 345 344 343 344 344 343 343 344 343 342 342
353 354 355 355 354 355 354 356 357 353 351 351 352 359 360 358 355 353 354 352 353 352 351 352 352 351 351 353 352 353 353 354 353 352 352 351 350 351 352 351 348 345 344 344 345 345 345 344 344 342 341 341 339 341 338 331 329 330 329 331 332 333 335 335 336 338 339 340 340 341 341 342 342 342 342 343 343 343 343 344 344 344 344 344 344 344 345 344 344 343 344 343 343 343 342 341 342
355 355 355 355 354 354 355 357 358 355 353 353 353 356 355 354 354 353 352 352 352 353 353 353 351 350 352 352 352 353 354 354 354 353 353 352 350 351 351 350 346 343 344 347 346 345 344 343 342 341 342 342 342 340 333 329 329 329 329 330 330 332 334 335 337 339 340 340 340 340 340 340 340 341 341 342 342 343 343 344 344 344 344 344 344 344 344 345 344 344 344 344 343 343 341 341 342
356 356 356 356 355 355 356 354 354 354 355 354 354 355 354 353 353 353 352 352 352 353 353 352 350 351 351 351 352 353 354 354 353 353 353 352 351 351 350 347 344 343 345 349 347 344 344 342 341 342 342 342 341 335 329 329 329 329 329 329 330 331 333 335 337 339 339 338 338 339 339 339 339 339 340 340 341 341 342 343 343 344 344 345 345 344 344 345 344 344 344 344 343 342 341 341 341
357 356 356 356 356 356 357 354 352 355 355 355 354 353 354 354 353 353 352 352 353 352 352 352 351 352 352 352 352 351 353 353 354 354 352 352 351 351 349 347 346 345 346 347 346 344 343 341 341 342 341 341 337 330 328 329 329 329 329 329 330 330 331 334 337 337 335 334 335 337 338 339 340 340 340 340 340 340 341 342 343 344 345 345 345 345 344 344 344 344 344 344 343 342 341 341 341
357 356 356 356 357 356 358 355 353 356 355 354 354 352 352 352 354 353 351 354 353 352 352 353 352 351 351 352 352 351 353 354 354 353 352 352 352 352 351 350 350 349 347 346 344 342 343 342 342 342 341 340 333 328 329 329 329 329 329 330 329 328 330 334 336 334 332 331 333 336 338 340 341 341 341 341 342 342 342 343 343 344 344 343 344 344 344 344 344 344 343 343 343 342 341 340 340
355 356 356 356 357 357 355 353 352 354 354 353 353 352 353 354 353 352 352 354 353 352 353 352 351 351 352 353 352 353 355 354 354 353 352 351 351 352 352 351 351 351 348 345 343 342 343 343 342 343 342 337 330 328 330 330 330 329 329 330 330 329 331 335 334 332 331 330 333 336 338 340 341 342 342 343 344 344 344 344 344 343 342 342 342 342 343 343 344 343 343 342 342 342 341 340 340
355 355 356 356 357 355 350 349 350 354 355 352 351 352 352 353 353 355 354 353 352 352 353 352 352 352 353 353 353 353 355 354 353 354 352 352 350 351 352 350 347 348 347 344 342 343 343 342 342 344 341 334 328 328 330 329 329 328 329 330 330 330 330 332 331 330 331 330 332 336 338 340 342 342 342 343 343 344 344 344 343 342 341 341 341 341 342 343 343 343 342 342 341 341 340 340 339
356 355 356 355 355 351 348 349 349 352 354 349 351 352 351 352 354 357 355 353 353 353 353 353 352 353 354 354 354 353 354 355 353 353 352 352 351 350 352 350 346 345 345 344 343 344 344 344 344 343 339 331 327 328 330 329 328 328 329 330 331 330 329 330 329 330 330 330 332 335 337 339 342 343 343 343 342 341 342 343 342 341 341 341 341 340 342 343 343 342 342 342 340 339 339 339 339
355 356 356 354 354 350 349 352 352 352 351 347 350 351 351 352 352 354 354 352 352 353 353 355 354 353 353 353 354 352 353 354 354 353 352 352 351 350 350 350 349 346 344 345 346 345 344 345 344 341 336 330 327 328 329 329 328 328 329 330 331 331 330 329 330 330 330 331 331 333 335 337 340 342 343 344 343 342 341 341 342 341 340 341 341 339 341 343 343 343 343 342 341 339 339 339 339
354 356 356 355 355 352 353 355 353 352 351 349 349 350 350 349 350 352 353 354 352 353 353 355 354 353 353 353 353 352 352 353 353 353 352 353 351 350 350 350 351 350 346 344 345 345 344 343 341 341 337 331 328 327 329 329 328 328 329 330 332 332 331 330 330 330 331 331 331 332 334 336 338 341 343 344 344 344 343 341 341 341 340 340 340 339 340 342 343 344 343 343 342 341 340 340 340
352 354 355 358 355 354 357 354 350 347 349 351 349 350 350 348 350 350 353 353 351 352 353 354 354 353 354 353 352 352 353 352 352 352 352 352 351 352 351 351 352 352 349 345 343 343 343 341 340 341 337 334 332 326 328 329 328 328 329 330 332 332 331 330 330 330 331 331 331 331 332 335 336 338 342 344 344 344 344 341 340 340 340 340 339 339 339 341 342 342 342 342 341 341 341 341 340
350 350 354 357 353 351 353 351 349 346 347 347 347 350 350 349 350 349 351 351 352 353 352 353 353 354 353 352 352 351 352 352 352 351 351 351 352 353 352 352 353 353 352 348 345 343 343 341 339 339 337 335 333 327 327 329 328 328 329 331 332 332 332 332 331 331 332 331 332 332 331 334 335 336 339 342 344 344 344 342 340 339 339 338 338 338 338 340 342 341 341 341 340 340 340 340 338
348 348 351 352 349 347 346 348 348 345 345 345 347 349 348 349 349 350 350 350 353 353 353 354 353 354 353 352 353 352 352 352 352 351 351 351 351 352 352 352 352 353 353 349 345 342 341 340 338 339 337 334 332 328 326 328 329 329 329 330 331 332 332 332 332 331 333 332 332 333 331 334 335 336 339 341 343 344 344 341 339 338 337 336 336 337 338 339 342 342 341 341 340 339 338 336 336
348 349 350 349 347 345 345 347 345 342 345 345 346 348 347 347 348 349 348 349 352 352 352 352 353 353 353 353 353 353 352 352 352 351 351 351 351 352 351 352 352 352 352 350 346 342 343 342 339 339 337 335 333 329 327 327 329 329 329 330 331 331 332 333 332 332 334 334 333 334 335 340 340 339 342 342 343 344 343 341 340 338 337 335 335 337 338 339 341 342 341 342 343 342 340 336 336
348 352 349 346 348 347 346 347 346 346 346 344 345 347 347 345 346 348 347 347 350 351 351 351 353 353 352 354 353 353 351 350 351 351 352 351 350 351 351 352 352 352 351 351 349 347 347 345 340 339 337 337 334 329 327 326 328 330 329 330 330 331 331 333 333 333 336 337 336 336 340 344 343 342 344 345 344 343 342 343 342 339 337 335 335 337 338 340 341 342 343 344 346 346 344 341 341
346 350 348 345 349 350 348 346 347 347 346 346 345 346 347 346 346 348 347 347 350 349 350 352 353 353 353 354 353 353 350 350 351 351 352 352 351 351 351 352 352 353 351 351 350 348 348 346 341 339 337 338 334 329 328 326 328 330 330 330 330 331 331 333 334 334 338 341 340 339 341 344 343 343 344 345 344 341 340 342 342 338 335 335 336 338 339 341 341 343 345 344 344 345 345 345 346
346 346 346 347 348 348 348 348 349 349 348 347 346 346 347 346 345 347 347 347 348 348 349 353 353 353 354 353 354 353 351 351 351 351 352 352 352 352 352 352 352 353 352 351 350 349 349 347 343 338 337 338 334 331 330 327 328 329 330 330 330 332 332 333 334 336 341 342 343 341 341 344 343 344 343 343 344 341 340 340 340 337 334 335 338 340 341 341 342 344 345 345 346 347 347 347 348
346 343 346 349 348 347 349 348 348 350 348 348 346 345 346 345 345 347 348 347 347 347 349 352 352 354 354 353 353 352 352 352 351 352 352 352 352 352 352 353 353 353 353 352 350 351 351 349 345 339 338 340 336 333 331 329 329 328 330 331 331 333 333 334 334 339 343 343 344 342 343 345 344 345 342 342 345 343 343 344 342 340 338 338 341 343 343 342 344 346 346 346 348 349 348 348 348
345 344 347 349 349 351 351 347 347 350 350 350 348 346 346 346 346 347 348 348 347 347 348 350 350 353 353 352 352 352 353 352 352 352 352 352 352 352 353 353 354 353 353 353 352 353 352 350 348 342 338 341 340 336 333 333 330 328 330 332 335 337 335 337 338 341 343 344 344 343 346 347 346 348 344 342 346 345 347 348 346 345 345 342 344 347 345 344 346 347 347 346 347 349 349 347 347
344 345 346 348 348 350 351 347 348 350 349 350 348 346 346 346 346 346 348 347 347 348 348 349 350 352 353 352 352 352 353 352 353 353 352 352 351 353 354 352 354 354 353 354 353 353 353 352 350 343 338 342 343 341 340 339 333 333 337 336 340 344 342 344 345 344 344 345 345 345 347 347 347 350 347 344 344 345 348 348 346 347 348 346 346 347 346 346 346 346 347 346 347 348 348 347 346
344 343 344 347 347 348 349 348 348 348 347 348 348 346 346 347 347 346 347 347 346 348 348 349 350 351 352 353 352 352 353 352 353 353 352 352 351 352 354 353 353 354 354 353 353 353 354 353 350 343 339 340 342 342 344 343 337 341 347 344 346 350 349 349 349 345 344 345 344 345 349 348 348 350 349 348 345 345 348 347 346 347 349 348 347 347 347 347 347 346 347 348 348 348 347 347 346
343 343 344 345 346 347 348 347 347 347 347 346 346 345 345 346 346 345 346 346 346 347 349 349 350 350 352 353 353 353 353 353 353 353 352 352 352 351 352 353 353 354 353 352 353 354 354 354 351 346 340 337 339 342 346 347 342 345 351 349 349 351 351 351 349 347 347 347 345 345 349 350 349 349 350 349 346 346 346 347 348 347 347 347 347 348 347 348 347 346 348 348 348 348 348 347 346
342 343 344 345 344 346 348 348 348 347 347 345 345 344 344 346 344 344 345 346 345 346 348 349 349 349 351 353 352 353 352 352 353 353 352 352 352 351 352 352 353 353 352 353 355 354 354 354 353 350 344 341 343 346 349 351 346 348 352 350 350 351 351 351 350 349 349 350 348 345 349 351 350 349 350 350 349 348 346 346 348 348 347 346 348 349 347 347 347 347 349 349 348 348 348 348 347
342 343 343 344 343 345 346 348 348 347 347 345 345 343 344 345 344 345 346 346 346 346 348 348 350 350 351 352 351 353 353 352 352 352 352 352 352 351 352 353 353 354 353 354 356 355 354 354 354 353 348 347 348 349 351 351 349 350 352 351 351 351 350 351 351 350 350 351 351 347 347 350 351 350 350 350 350 348 345 347 348 348 348 347 349 349 347 346 347 348 348 347 348 349 349 349 347
342 342 342 343 342 343 343 345 347 346 346 345 345 344 345 344 341 343 345 346 346 345 348 348 349 349 350 351 352 353 353 353 352 352 352 352 353 352 352 352 353 354 354 355 355 354 355 354 354 354 352 350 349 351 351 351 351 351 352 352 352 351 348 351 352 350 351 353 352 349 345 346 349 350 350 350 349 348 346 346 347 348 348 348 349 349 347 347 347 349 348 345 347 349 350 349 348
340 342 342 342 343 342 341 342 344 345 346 346 345 343 344 344 341 341 344 345 346 346 347 348 349 349 350 351 353 354 353 353 353 352 352 352 353 353 352 352 352 354 354 355 354 354 356 355 354 355 354 349 347 351 351 352 353 352 352 351 351 351 348 349 352 352 352 353 352 350 345 342 344 347 349 349 348 348 347 347 348 348 347 349 350 348 347 348 347 349 349 347 349 349 350 350 349
338 340 341 342 341 341 343 342 343 344 344 347 345 337 339 345 343 342 344 344 345 346 346 347 349 350 350 351 353 354 353 353 353 352 352 352 353 353 352 352 353 354 354 355 355 355 355 355 355 356 355 348 345 351 351 352 353 352 352 351 350 350 347 348 352 353 352 352 351 349 345 341 341 342 344 345 346 348 349 349 349 349 348 349 350 346 346 350 349 349 349 349 350 349 349 350 349
338 338 341 342 336 336 343 342 342 342 343 346 344 334 337 344 343 343 343 344 345 347 347 347 349 351 351 350 352 354 354 353 353 352 352 352 352 352 352 352 353 354 355 355 355 356 355 354 354 354 356 350 345 351 352 352 353 352 352 352 350 348 347 348 351 353 352 351 351 348 344 341 340 339 340 342 344 348 349 348 348 349 349 348 348 346 346 349 350 349 348 348 349 348 350 350 349
337 335 335 339 334 334 342 342 340 342 342 345 342 335 338 342 342 343 343 344 346 346 348 349 349 350 349 349 352 354 354 354 353 352 352 352 352 352 352 352 352 354 355 355 355 356 355 354 354 354 356 352 345 350 353 352 353 353 352 352 351 347 347 349 351 353 352 352 353 348 343 340 340 339 340 342 344 346 348 350 350 349 350 348 348 348 346 347 351 349 347 347 348 348 349 349 347
336 334 330 333 333 333 338 339 339 341 341 343 341 337 339 341 341 342 343 345 346 347 348 348 347 347 348 348 350 353 353 354 353 352 352 352 352 352 352 353 352 353 355 355 355 356 355 354 354 354 356 354 348 350 353 352 352 353 351 352 352 349 348 350 352 352 352 352 353 350 344 340 340 339 339 341 343 345 347 350 352 351 350 348 347 347 346 349 351 349 346 347 347 347 350 349 346
330 332 330 332 335 333 333 336 338 340 340 341 341 340 340 340 341 342 344 346 346 346 346 346 347 347 347 348 350 352 353 354 353 352 352 352 352 351 352 352 352 353 353 355 356 355 355 354 354 354 355 356 351 351 353 352 352 353 351 351 353 351 349 351 352 352 351 351 352 351 347 342 340 339 339 340 342 343 346 350 351 352 351 348 347 345 347 350 349 349 347 345 346 347 349 348 344
327 328 328 329 334 333 331 334 338 339 339 341 340 340 340 340 342 343 344 345 344 345 346 346 348 347 348 349 352 354 354 354 353 352 351 350 352 351 352 352 351 352 353 354 355 355 355 354 354 354 354 356 353 352 353 352 352 353 352 352 354 352 349 351 353 352 351 351 351 351 348 345 342 339 338 340 341 343 346 349 349 352 352 348 348 346 347 349 349 349 347 344 345 345 346 345 342
332 332 329 328 329 331 334 336 337 338 338 340 340 339 340 340 341 342 343 344 344 346 346 347 348 347 348 350 352 354 354 354 353 353 351 349 351 351 352 352 351 351 352 353 354 354 355 354 354 354 354 355 354 353 353 352 352 351 350 351 352 350 347 349 352 351 351 351 350 350 348 346 343 339 339 339 341 342 344 348 349 350 350 347 348 347 348 350 349 348 346 345 345 345 345 343 341
334 333 330 329 328 328 334 337 337 338 337 338 340 339 340 341 340 342 343 344 345 347 346 347 348 348 350 351 352 354 354 354 354 353 352 350 350 351 351 352 351 351 351 352 353 353 353 353 353 354 354 355 355 353 351 351 352 349 347 349 349 347 345 347 350 351 352 351 350 350 349 347 344 341 340 339 341 341 341 346 349 349 348 347 348 347 348 349 348 347 345 346 348 348 347 340 338
332 331 328 327 327 328 334 336 336 337 336 336 339 339 339 340 340 341 343 343 344 346 348 349 348 348 352 353 353 353 353 354 354 353 353 352 351 352 351 352 352 352 352 352 352 352 352 353 353 353 354 355 354 351 348 350 352 348 343 345 347 346 344 343 346 350 352 351 350 350 350 347 344 342 343 341 341 341 341 344 348 348 345 347 349 348 347 348 348 348 346 348 350 350 348 341 338
331 330 327 324 327 331 332 336 337 337 335 336 339 338 338 340 340 340 341 343 343 344 348 350 349 349 352 354 352 352 353 354 355 354 353 353 352 353 352 352 353 353 353 352 353 352 352 353 353 352 353 353 353 351 349 349 351 348 343 342 345 348 347 342 342 346 350 352 350 350 350 346 343 341 342 342 341 341 342 344 346 347 346 347 348 346 346 347 347 348 347 349 351 349 347 341 337
333 331 325 322 327 328 326 332 337 337 336 336 338 337 338 340 339 340 340 341 343 342 344 350 350 351 353 355 352 351 353 355 355 355 354 353 353 353 353 353 354 354 354 354 353 353 352 353 354 353 352 353 352 351 350 350 350 348 345 342 342 348 350 347 346 347 349 352 351 351 351 346 341 340 342 342 342 342 343 346 347 347 346 347 347 346 346 346 347 348 348 349 351 351 347 339 336
332 332 327 323 327 328 326 331 335 336 336 337 336 332 332 338 338 339 340 339 341 341 341 348 351 351 352 355 353 351 353 355 355 355 354 353 353 353 353 354 354 354 355 355 355 355 353 353 354 353 352 353 352 352 351 350 350 349 347 347 346 349 351 350 351 351 351 351 351 351 351 346 340 338 340 342 342 342 345 348 348 347 346 345 345 346 345 346 347 347 347 346 349 350 347 341 338
328 331 331 328 329 329 330 332 332 329 329 334 335 325 326 336 338 339 339 338 339 341 341 343 350 352 352 354 353 351 352 354 355 355 354 354 353 352 353 355 356 355 356 356 356 356 354 352 354 352 351 352 353 352 351 349 349 348 347 347 347 348 350 351 350 351 351 351 349 351 351 346 339 337 339 341 341 343 346 349 348 347 346 344 344 345 345 347 346 347 347 346 348 349 347 345 342
325 329 332 331 330 330 329 329 327 322 324 334 335 326 323 330 335 338 339 339 340 341 341 341 347 352 352 353 352 351 351 353 355 355 354 354 353 353 354 355 357 356 357 357 357 357 355 353 352 351 349 350 352 352 351 348 347 347 346 344 343 342 345 349 347 346 350 351 348 350 352 347 340 338 340 340 340 341 345 347 347 346 347 346 345 345 346 346 346 348 347 348 350 347 345 346 343
325 330 331 330 330 329 329 328 325 324 327 331 334 331 324 324 331 338 339 339 340 341 341 341 342 346 349 351 351 351 351 353 354 354 354 354 353 354 354 355 357 357 357 358 358 358 356 353 350 349 347 347 350 351 350 348 346 345 345 343 341 338 339 344 345 344 348 352 350 349 352 349 341 339 341 341 339 338 342 347 348 346 346 346 345 347 347 346 347 349 348 349 350 346 344 345 344
328 331 330 329 329 328 329 327 324 326 325 322 327 330 325 321 329 339 339 337 340 340 340 341 342 342 343 346 348 350 351 353 354 355 355 355 354 354 354 355 357 358 358 359 360 358 356 353 349 347 346 343 346 349 349 348 345 343 343 342 340 338 338 341 346 346 347 352 353 351 351 350 346 342 341 343 342 338 339 346 348 348 347 345 345 347 348 346 347 349 348 349 348 344 342 340 341
329 330 329 329 329 328 328 326 323 323 321 318 322 326 322 320 326 333 335 333 336 340 339 340 342 342 341 342 346 348 349 352 354 354 355 355 353 353 353 355 358 358 358 359 360 359 356 355 351 348 346 343 344 347 348 346 344 342 341 340 338 338 340 342 347 348 346 347 352 353 352 351 350 348 344 345 345 340 338 342 347 349 349 347 344 346 348 348 349 348 349 350 346 342 341 338 340
329 329 328 327 327 327 326 325 323 319 317 318 321 324 322 320 323 330 333 334 337 338 339 340 340 342 342 341 346 348 349 351 353 353 354 355 353 353 353 355 357 357 358 359 360 360 359 357 353 349 347 344 344 345 345 343 342 342 341 338 337 337 340 345 348 349 346 344 346 351 352 350 351 350 347 346 346 342 339 339 343 347 349 348 346 346 348 351 351 349 349 350 347 343 341 340 340
328 328 326 322 321 322 321 320 320 316 315 318 321 324 322 318 322 330 334 337 338 338 338 339 340 341 342 341 345 350 349 349 352 352 353 355 354 353 354 355 356 355 356 359 360 361 360 358 355 351 349 347 346 345 344 342 342 342 340 338 336 336 340 344 347 348 348 345 342 345 349 350 351 351 348 347 346 344 341 339 341 343 346 348 348 347 347 350 353 352 350 349 348 345 341 342 341
329 327 323 318 316 317 318 317 316 314 315 319 322 322 320 319 325 331 335 336 337 338 339 339 339 341 342 341 342 349 350 348 350 352 352 353 354 353 353 354 356 356 356 358 360 361 362 359 355 352 350 348 347 346 344 343 342 341 339 338 336 335 339 341 343 345 347 347 343 342 346 348 349 350 350 346 343 344 343 340 341 342 343 345 347 348 346 349 353 355 353 351 349 346 342 343 342
327 324 320 316 315 317 318 318 317 316 316 318 322 321 318 319 326 333 334 334 336 337 338 338 339 340 342 343 343 346 351 350 349 352 352 352 353 353 353 354 356 356 356 359 361 361 361 360 356 352 349 347 345 345 345 344 343 340 338 337 335 334 336 337 338 339 342 344 342 342 344 346 345 345 346 344 341 342 343 341 340 341 342 342 343 346 346 347 351 354 355 354 351 347 343 342 342
327 327 324 319 318 318 318 318 317 317 317 318 320 320 317 318 325 332 333 333 335 337 338 338 339 341 342 345 346 345 349 351 350 351 351 349 351 352 353 354 356 356 357 361 362 361 361 360 357 352 348 346 345 344 344 343 342 341 338 337 335 334 333 334 334 334 336 339 339 340 344 347 346 341 339 341 342 343 344 343 340 339 341 341 341 343 345 346 348 351 354 354 353 349 343 341 341
327 328 324 319 321 322 319 318 318 317 317 317 318 318 321 324 329 332 331 331 334 334 337 338 339 342 343 344 346 343 345 351 351 350 350 349 350 352 353 354 356 359 360 361 362 360 360 360 357 352 346 343 342 342 341 339 339 339 337 336 335 334 333 333 333 333 333 335 336 339 343 345 347 345 340 340 342 344 346 346 343 339 339 340 341 342 343 345 347 349 351 352 353 350 345 342 342
326 324 320 322 326 325 319 318 320 318 316 317 318 318 322 325 327 330 332 331 332 333 334 336 339 342 342 343 346 343 343 349 351 349 348 349 352 352 353 353 357 362 362 361 362 360 360 360 358 354 349 343 337 337 337 336 335 336 335 334 334 333 333 332 332 332 332 332 333 337 342 344 347 350 348 345 343 344 346 348 347 343 340 339 340 342 342 344 344 346 348 349 351 351 347 345 344
326 321 322 326 327 326 323 319 319 318 316 317 317 317 318 319 321 329 332 331 331 333 332 334 337 341 342 342 345 344 342 346 350 350 348 349 351 351 353 354 357 363 364 361 361 360 359 359 358 354 349 344 338 335 335 334 333 333 333 333 332 332 332 331 331 331 331 332 332 335 341 346 346 348 350 350 349 346 346 347 348 346 342 338 338 340 342 343 343 344 345 347 348 350 349 347 347
328 325 327 326 321 320 321 319 319 319 318 318 318 318 319 318 321 327 330 331 332 334 333 333 335 338 340 341 345 345 341 344 349 350 350 351 352 352 354 355 357 362 364 362 361 361 360 360 360 354 345 339 337 335 335 334 333 332 332 332 332 332 332 332 332 332 332 332 333 334 338 344 346 346 347 350 351 349 347 347 347 346 344 340 337 337 339 341 343 343 342 343 345 348 350 349 347
329 329 329 327 323 321 321 320 320 319 319 320 319 318 318 322 327 329 331 333 333 333 336 335 334 336 340 342 345 345 341 344 350 350 350 352 352 353 356 357 359 362 364 363 361 362 362 362 362 359 351 344 339 337 336 335 334 333 332 332 333 333 333 333 333 333 333 333 334 336 338 341 345 345 344 345 348 348 348 348 347 345 345 343 339 336 337 338 341 343 342 341 341 344 348 349 348
326 324 324 325 324 324 323 322 320 320 320 319 320 318 318 326 334 333 333 335 334 335 337 337 334 335 340 342 344 343 341 344 349 350 350 351 352 353 356 360 361 362 364 364 362 362 362 364 365 362 357 351 344 340 337 336 335 333 333 333 333 333 333 333 334 334 335 335 335 337 339 341 343 343 342 343 343 344 348 350 349 347 346 344 340 337 336 336 337 340 341 341 341 341 344 349 350
326 324 323 324 324 322 320 320 320 319 319 319 319 317 319 328 335 334 334 335 334 334 335 336 336 334 339 344 344 342 342 342 345 346 346 350 355 357 359 362 362 360 363 364 363 362 362 365 366 363 359 354 348 343 338 335 334 333 333 333 333 333 334 334 334 334 334 335 337 338 339 342 344 343 342 342 341 341 344 349 351 350 348 346 343 339 337 336 336 337 338 340 341 342 342 347 351
Wind_Speed
3 6 5 5 6 6 6 5 3 2 3 3 2 1 1 2 2 4 8 8 4 5 7 10 13 13 13 12 14 15 14 8 5 5 9 19 31 33 30 32 33 32 31 31 30 28 27 27 27 26 24 23 23 23 22 21 20 19 19 18 17 17 17 17 17 17 17 16 15 15 14 14 14 14 14 14 14 14 14 14 12 11 11 12 13 13 12 11 10 10 10 10 10 10 9 9 10
3 6 4 3 5 6 3 3 2 1 3 2 0 1 1 1 4 5 7 9 7 10 13 15 18 18 19 18 18 19 18 16 21 23 25 34 34 30 31 32 32 31 30 31 30 29 28 28 28 26 24 24 23 23 22 21 20 20 19 18 18 17 17 17 17 17 16 15 15 14 14 13 13 13 13 13 13 13 13 13 11 10 11 11 12 12 12 11 11 10 10 9 9 10 9 10 10
3 6 6 6 6 6 3 1 2 2 1 1 0 2 0 2 4 7 8 9 14 16 15 14 15 15 17 16 17 19 15 21 33 36 33 35 34 32 32 31 31 31 32 31 30 29 29 28 28 26 25 23 23 22 21 21 20 20 19 18 17 17 17 16 17 16 16 15 14 14 14 13 12 12 12 12 12 12 12 12 11 10 11 11 12 12 12 11 11 11 10 10 9 9 10 10 11
6 6 8 7 5 4 2 1 3 2 1 1 0 3 4 5 6 8 10 15 17 15 13 13 14 14 18 18 18 19 17 22 28 34 32 31 35 36 33 32 32 33 33 30 29 29 29 29 28 26 25 23 23 22 22 21 20 19 19 18 17 16 16 16 16 16 15 15 14 13 13 12 12 12 12 12 11 11 12 12 11 11 11 11 11 11 11 11 11 11 11 10 9 10 10 11 11
10 8 6 6 3 2 1 3 3 1 3 2 1 6 9 8 10 10 12 18 15 13 13 13 14 15 20 18 16 17 19 23 23 28 30 30 34 36 34 33 34 34 33 29 29 29 29 30 28 26 24 24 23 22 22 21 20 19 19 17 17 16 15 15 15 15 15 14 14 13 12 12 12 11 11 11 11 11 11 11 11 11 11 11 11 11 11 11 11 11 11 10 10 10 10 10 11
11 7 5 6 5 4 3 3 2 3 5 2 2 8 11 10 11 13 15 17 15 14 14 14 16 18 18 18 19 20 21 23 23 25 31 34 35 35 34 35 35 34 31 28 29 30 30 29 28 26 24 24 23 23 22 21 20 19 18 17 16 16 15 15 14 14 14 14 13 12 12 12 12 12 11 11 11 11 11 11 11 11 11 11 11 11 11 11 11 12 12 11 11 10 10 10 11
8 6 5 4 5 5 4 4 4 4 5 6 1 6 10 11 14 16 14 15 14 14 15 15 18 18 14 17 19 19 20 22 24 26 34 37 35 34 33 34 33 32 31 28 30 31 30 29 27 26 24 23 23 23 22 21 20 19 18 17 16 15 14 14 14 14 13 13 12 11 12 12 12 11 12 11 11 11 11 11 11 11 12 11 11 11 11 11 11 11 11 12 11 11 10 10 10
7 4 3 3 3 3 4 6 5 3 4 7 2 6 8 10 13 14 13 11 8 11 16 15 18 17 14 18 18 18 20 21 26 30 36 38 36 34 32 32 31 30 30 30 31 32 30 28 27 25 24 23 24 24 22 21 20 19 17 17 15 14 14 14 14 13 12 12 11 11 11 11 11 11 11 11 11 11 12 11 11 11 11 11 11 11 11 11 11 11 11 11 11 11 11 10 10
8 5 2 2 3 2 5 7 6 5 6 5 1 6 10 13 12 12 14 12 11 13 16 14 18 17 16 21 19 20 21 24 31 34 36 37 36 34 31 32 33 31 30 31 32 31 30 28 26 25 24 23 24 23 22 21 19 18 17 16 14 14 14 14 13 12 11 10 10 10 10 11 11 11 11 11 10 11 11 11 11 11 11 11 11 11 11 11 11 11 11 11 11 11 11 11 10
8 7 1 1 4 4 5 7 7 5 9 4 3 5 7 13 15 15 13 12 14 15 17 16 19 20 18 19 18 21 25 29 33 33 34 35 34 33 31 31 33 33 32 33 32 31 30 28 27 25 24 24 24 23 21 20 19 18 17 15 14 14 14 13 13 11 10 9 9 9 10 11 11 11 11 10 10 10 10 10 10 11 11 11 11 11 11 11 11 11 11 11 11 11 11 11 11
7 5 1 2 3 4 5 6 9 3 11 6 9 11 7 9 14 19 15 13 16 16 19 18 18 22 20 17 19 24 29 31 32 33 33 32 31 29 30 31 32 32 32 33 32 31 30 28 26 24 24 24 24 23 21 20 19 18 17 15 13 13 14 13 11 10 9 8 8 9 10 10 11 11 11 10 10 10 10 10 10 10 10 10 10 11 11 11 11 11 11 11 11 11 12 11 11
5 1 1 2 1 5 5 6 11 5 4 3 7 8 9 8 10 18 16 14 16 16 17 14 16 20 16 15 20 27 29 30 31 33 32 31 30 28 29 30 30 31 32 33 31 30 30 28 26 24 23 23 23 23 21 20 18 17 16 14 13 13 13 11 10 9 8 7 8 9 9 10 10 10 10 10 10 10 9 9 10 10 9 9 10 10 11 11 11 11 10 10 10 10 11 11 10
7 2 1 4 2 5 7 6 7 4 5 1 6 7 7 6 11 18 19 17 15 15 15 16 19 18 15 16 21 26 27 30 32 32 32 31 29 28 28 27 28 29 31 32 31 30 29 27 26 23 22 22 22 22 21 19 18 17 16 14 12 12 11 10 9 8 7 7 7 8 9 10 10 10 10 10 10 10 9 9 9 9 9 9 9 10 10 10 10 10 10 10 10 10 10 10 10
9 4 3 3 2 4 7 6 4 2 2 3 6 8 6 5 12 18 20 17 12 15 17 19 20 17 18 19 20 25 27 29 32 31 32 33 31 29 28 27 28 28 28 31 30 29 28 27 25 23 22 21 21 21 21 19 18 17 15 14 12 11 10 8 7 6 6 6 7 8 8 9 9 9 9 9 9 9 9 8 8 8 7 7 8 9 9 9 10 10 10 10 10 10 10 9 9
9 7 5 3 3 4 5 6 4 4 6 5 6 6 5 8 11 13 19 17 12 18 19 18 18 14 17 18 19 27 30 31 32 31 31 34 33 28 28 28 29 29 27 29 29 29 28 27 25 23 22 21 21 22 21 19 18 16 15 13 11 10 8 7 6 5 5 5 6 6 7 8 8 8 8 7 7 7 7 7 6 6 6 6 6 8 8 8 9 9 10 10 10 10 10 10 10
10 7 3 3 4 2 5 7 3 3 3 8 9 8 5 8 11 10 17 21 19 20 17 17 14 11 19 21 23 31 32 33 32 31 32 33 30 27 28 26 28 29 26 27 29 29 28 27 26 24 23 22 21 21 21 20 18 17 15 13 11 9 7 5 4 5 4 4 5 5 5 6 7 7 7 6 6 6 6 6 5 5 6 5 6 7 7 7 7 7 8 9 10 10 10 11 11
11 7 4 4 4 3 5 6 3 3 1 7 8 9 7 6 11 11 15 22 22 21 18 16 15 15 21 23 28 34 33 34 32 31 33 33 31 29 28 27 27 27 25 26 28 29 28 27 27 25 24 22 21 21 21 21 19 17 15 13 11 9 7 5 3 4 4 4 5 5 4 4 5 6 6 5 5 5 5 6 5 4 5 5 5 5 5 6 5 6 8 8 8 8 9 11 12
10 5 5 5 4 4 5 6 6 8 5 3 7 7 7 7 10 13 13 16 19 20 16 14 18 21 22 27 32 34 33 34 32 32 33 31 32 31 31 32 29 26 26 26 26 28 27 25 27 26 24 22 21 20 20 20 20 18 16 14 11 9 7 5 3 3 3 3 4 4 4 3 4 4 5 5 4 5 5 5 5 4 4 5 5 4 4 5 5 7 7 7 7 7 7 9 11
10 5 6 5 2 4 6 8 8 7 10 6 6 6 5 9 9 10 10 13 15 15 15 16 21 24 26 32 33 33 34 33 32 32 32 30 31 31 32 33 31 28 27 26 25 26 26 25 27 27 25 23 21 20 19 20 20 19 17 14 12 10 7 5 3 1 2 3 4 5 5 3 4 4 3 4 4 4 4 4 5 5 4 5 5 4 4 4 4 6 7 7 6 6 7 8 8
11 8 6 4 3 4 7 10 12 8 9 11 2 7 5 8 9 7 8 12 14 11 12 17 22 26 29 33 33 33 33 32 32 31 31 29 29 30 30 30 30 29 27 26 26 25 24 25 27 28 26 24 22 20 19 19 20 19 17 15 13 10 8 6 4 3 3 3 4 5 5 3 3 3 3 4 3 3 4 4 4 5 5 5 4 4 4 4 4 4 5 5 4 4 6 4 4
10 10 6 4 4 3 8 8 12 15 8 7 9 5 6 7 9 7 9 8 9 12 14 16 22 28 31 33 33 32 32 31 31 30 30 29 28 28 29 28 27 28 27 26 27 26 25 25 26 28 26 24 22 20 19 18 19 19 17 14 12 11 9 7 6 5 4 5 6 5 5 4 4 3 3 3 2 3 3 4 4 4 5 5 4 4 3 3 4 3 4 4 3 4 5 2 3
8 10 8 10 8 4 5 5 10 23 14 6 6 4 1 6 8 6 11 6 2 12 17 18 24 29 32 33 32 32 32 31 31 30 30 29 28 27 27 27 25 26 26 25 28 27 26 25 26 28 28 25 23 21 19 18 18 18 17 14 12 11 10 8 8 7 6 6 7 7 6 6 5 2 2 3 2 3 3 3 4 3 4 4 3 3 2 3 4 3 4 3 2 3 4 3 2
9 10 10 13 11 6 5 7 13 23 14 7 2 2 6 3 5 4 13 11 7 13 19 22 25 29 31 31 31 31 32 31 31 31 30 30 30 28 27 29 27 26 28 27 28 27 25 26 26 28 28 26 23 21 19 18 17 18 16 15 13 11 10 9 9 8 6 6 7 7 7 6 5 4 3 3 2 3 3 2 4 3 2 4 3 2 2 3 3 3 3 3 4 3 2 3 1
12 10 12 12 13 12 14 12 12 16 14 5 7 12 11 6 6 5 11 13 12 17 22 25 26 28 29 29 29 30 32 31 30 29 29 29 29 28 27 29 28 27 30 29 28 28 26 26 26 28 28 27 25 22 21 19 18 18 16 16 14 12 11 10 9 7 6 7 6 6 6 7 7 6 5 3 2 3 2 2 4 4 2 2 2 1 2 3 4 2 2 3 3 1 1 3 2
15 12 13 10 11 15 18 12 8 12 15 9 6 9 11 10 7 5 8 12 12 17 23 26 26 27 28 28 29 29 30 29 29 28 27 27 27 28 27 27 27 28 30 30 28 28 27 27 25 25 27 28 25 23 21 19 19 19 17 16 15 13 13 11 9 8 7 7 7 8 7 8 7 5 5 4 3 2 1 1 3 4 2 1 3 1 0 2 3 2 2 2 0 1 2 4 2
13 16 16 12 12 13 15 13 12 16 17 11 9 8 7 13 12 6 11 13 13 18 22 23 25 27 28 27 27 28 29 28 28 28 27 26 26 27 27 27 27 28 29 29 28 28 29 27 25 25 26 26 25 24 21 18 19 19 18 17 15 15 14 10 10 9 8 8 8 10 9 8 7 7 6 5 3 2 2 2 3 3 2 2 3 1 1 2 2 2 1 1 1 1 2 2 3
14 17 17 16 15 13 13 16 20 20 17 13 11 9 8 15 14 7 13 16 14 19 21 22 24 27 27 26 27 27 28 28 28 28 27 26 26 26 27 27 27 27 28 29 29 28 29 28 27 26 26 27 25 24 22 19 19 20 19 18 16 16 15 12 11 9 8 8 8 10 11 9 8 9 8 7 4 3 3 3 3 2 1 2 1 2 2 2 3 3 1 1 1 1 1 3 3
17 16 13 15 17 17 16 15 17 15 13 14 13 10 10 12 11 8 15 18 16 20 21 22 23 24 26 25 27 27 27 28 27 28 28 28 28 27 27 28 27 27 27 29 29 28 28 28 28 26 26 28 27 24 22 20 19 20 19 18 17 16 15 15 12 10 9 11 10 10 11 12 9 9 9 8 6 5 4 3 2 3 2 0 1 2 2 2 3 3 2 1 1 1 2 3 3
19 16 12 12 14 16 18 16 15 13 10 13 13 10 10 10 10 9 17 20 18 21 22 22 21 23 25 24 26 26 26 28 27 28 28 27 28 27 26 27 27 27 27 28 28 28 29 28 28 27 26 28 27 24 23 21 20 20 19 18 17 16 15 15 13 11 11 11 12 10 10 12 12 10 9 8 7 5 4 2 1 2 2 2 1 2 2 1 1 1 1 1 1 1 3 3 4
17 14 11 10 11 12 15 16 17 15 12 14 13 8 8 10 12 11 16 21 20 22 22 21 21 22 23 24 25 26 26 28 28 28 28 27 27 27 26 26 27 27 27 27 27 28 29 29 29 27 25 27 27 24 22 22 20 20 19 17 17 16 15 15 13 13 12 12 12 11 10 11 13 12 10 8 8 6 4 4 3 4 3 3 3 2 2 1 1 0 2 2 1 2 3 2 3
13 12 10 9 9 8 12 15 17 16 14 18 15 7 7 10 14 16 16 21 21 21 21 20 21 21 22 22 23 25 25 27 27 27 28 28 27 28 27 26 27 27 27 28 28 28 28 28 28 28 26 27 28 25 23 22 21 20 19 17 17 17 16 15 13 12 13 12 12 12 11 11 12 12 11 9 9 7 6 5 5 5 4 4 3 2 3 2 1 0 1 1 1 2 3 3 3
9 10 10 10 10 9 12 17 19 17 14 19 17 8 7 9 12 19 18 21 22 20 20 18 18 19 20 21 21 22 24 25 25 26 27 28 27 28 28 27 28 28 28 29 28 28 28 28 27 27 27 27 28 26 24 23 21 20 20 18 17 17 16 15 14 13 12 13 12 12 11 11 11 12 11 10 9 9 8 6 5 5 4 4 3 2 3 2 1 0 1 0 0 2 4 3 3
9 10 10 11 12 9 11 15 20 20 14 16 16 10 7 7 10 19 21 20 21 20 21 20 20 21 21 21 22 22 23 24 25 26 26 28 27 28 28 29 29 28 28 29 29 29 29 29 28 27 27 26 28 28 25 24 22 21 20 19 17 17 16 15 14 14 12 13 12 12 11 12 12 11 11 11 10 9 8 7 5 4 5 5 4 4 3 2 2 1 0 1 1 4 5 3 3
9 10 10 11 13 11 10 11 15 21 16 15 17 12 9 7 8 17 21 20 19 19 23 23 20 20 21 22 22 22 23 25 26 26 27 28 28 27 28 29 30 28 28 29 30 31 29 29 29 27 27 26 27 28 26 25 23 21 20 19 17 17 17 15 14 14 13 12 12 13 12 11 12 12 12 11 11 10 8 7 6 5 5 4 3 4 2 3 2 2 1 1 2 5 6 3 3
10 11 10 11 13 13 13 12 10 17 17 15 16 14 12 10 9 14 16 19 20 18 19 24 21 19 20 23 23 23 24 25 26 26 26 27 27 27 28 29 30 29 28 29 31 32 30 29 29 27 27 26 27 28 27 25 24 22 21 20 18 18 18 16 14 14 14 13 13 14 13 11 12 13 12 12 11 11 9 8 7 6 6 5 4 3 3 4 3 1 1 1 2 4 6 4 4
13 14 12 11 12 13 15 13 10 13 15 15 16 14 14 13 12 14 15 20 21 16 15 23 25 21 20 24 23 23 25 25 26 26 25 26 27 27 28 29 30 30 29 30 32 33 32 30 31 30 28 28 27 28 28 25 23 24 24 21 20 21 20 19 16 14 14 14 13 15 15 12 12 12 13 13 12 12 11 9 8 7 7 5 3 3 3 4 3 2 2 1 2 4 6 5 4
17 15 13 14 13 12 15 14 11 13 13 14 16 15 15 14 13 15 17 20 17 18 18 21 24 21 20 23 24 23 24 24 25 26 26 25 26 27 28 29 30 30 30 31 32 33 33 32 32 32 30 30 28 28 30 26 22 23 26 24 22 22 22 21 19 15 14 14 14 16 17 14 13 13 13 13 13 12 12 10 9 8 7 5 3 4 4 5 4 3 2 2 3 4 5 5 5
19 15 13 14 13 12 15 15 14 16 12 12 16 16 15 15 14 13 17 18 16 17 21 22 23 23 23 24 23 23 22 23 25 27 28 26 27 28 28 29 31 32 32 32 32 32 34 32 32 33 31 30 29 27 29 27 23 24 26 26 23 22 23 22 21 18 15 14 15 17 18 16 14 14 13 13 13 13 12 11 11 9 7 5 5 5 4 4 3 3 3 3 3 5 5 4 5
17 14 12 11 11 12 14 16 15 15 10 10 15 16 14 15 16 15 16 16 15 18 20 28 30 25 26 27 25 24 24 24 27 30 31 29 28 29 29 30 31 32 32 33 33 33 34 32 32 34 32 30 29 27 28 27 26 25 26 27 25 20 20 21 21 20 17 15 16 18 19 17 15 15 14 13 13 13 13 12 11 9 7 6 7 6 5 5 4 5 5 3 4 5 5 5 5
14 13 12 11 12 11 10 14 16 14 10 9 13 14 12 14 15 15 19 20 19 20 19 31 39 29 27 30 27 28 28 27 29 31 32 31 30 31 32 31 31 31 32 34 35 35 35 34 33 35 33 32 32 29 29 29 28 26 25 26 25 19 15 17 17 18 18 17 16 19 20 19 16 15 14 14 14 14 13 12 11 9 8 7 7 6 6 6 6 6 6 5 5 4 4 4 6
15 16 14 12 13 14 11 11 14 14 12 11 12 11 10 13 15 13 16 21 22 22 19 24 38 34 30 31 29 30 31 30 31 31 33 34 34 34 35 33 32 32 33 35 37 37 38 38 35 36 35 34 34 31 31 30 28 27 25 23 22 19 15 16 17 17 18 19 19 19 20 19 17 16 15 15 15 14 13 12 11 10 9 7 6 6 6 7 7 6 6 6 5 5 4 2 5
14 17 19 17 15 16 15 13 12 11 12 14 13 10 7 11 17 15 14 16 16 20 20 20 32 34 30 30 30 30 31 31 32 33 34 35 35 36 37 35 33 34 35 36 38 38 39 40 38 38 37 36 35 33 32 31 30 29 28 26 24 24 21 20 22 21 20 21 21 18 19 18 16 17 17 16 15 14 13 12 12 11 9 8 6 6 7 7 7 7 7 6 6 7 7 4 4
11 14 19 21 18 16 17 16 12 9 10 14 16 12 7 10 16 17 16 15 14 18 19 20 28 33 30 30 30 30 30 30 31 32 33 34 35 35 38 39 37 36 36 36 37 38 39 41 40 39 39 38 36 35 34 32 31 31 30 29 29 29 28 25 24 23 21 20 20 18 19 20 16 16 18 17 16 15 13 12 12 11 10 9 7 6 7 7 7 8 7 7 7 8 10 7 5
10 12 17 21 20 18 17 16 13 9 9 13 17 15 8 8 12 15 18 18 16 16 16 17 24 30 31 31 30 29 29 31 32 32 33 35 36 37 39 42 40 36 35 35 37 38 39 41 41 40 40 40 38 37 35 34 33 32 31 30 30 29 29 26 24 22 20 19 19 19 20 20 17 17 18 18 17 16 15 13 13 13 11 10 8 7 8 8 8 8 8 8 8 7 10 9 7
11 13 14 17 20 19 17 14 11 10 10 10 15 17 10 8 9 12 18 19 16 16 17 16 20 27 30 31 33 31 30 33 34 34 36 36 38 40 40 41 40 36 35 36 38 39 40 41 42 41 40 40 39 38 36 35 34 33 32 31 30 28 27 26 24 22 21 20 19 19 20 20 18 17 17 18 17 17 16 15 14 13 12 11 9 8 8 9 9 9 10 10 9 8 8 8 9
13 15 14 13 16 17 16 13 10 10 11 11 14 15 11 8 9 12 15 17 17 17 16 15 18 28 29 28 33 34 30 33 35 35 37 38 39 40 38 38 39 36 35 38 37 39 41 42 42 42 41 40 40 39 37 36 35 34 34 33 31 29 28 26 25 23 23 22 21 20 20 20 19 18 17 18 19 18 17 17 15 13 13 12 11 9 9 9 10 10 11 11 9 9 9 8 9
14 14 13 10 10 12 12 11 10 9 10 12 16 15 11 8 8 10 12 13 16 16 13 14 17 25 29 27 30 34 30 30 33 33 35 37 37 37 35 38 41 38 36 37 37 38 41 42 43 43 42 41 40 40 39 37 36 34 34 34 33 31 29 28 26 25 24 24 24 22 21 22 22 21 19 18 20 19 18 18 17 15 14 13 12 11 10 10 10 10 12 12 10 10 10 8 10
14 11 11 9 8 8 8 9 10 11 10 12 16 17 14 11 9 10 11 11 15 15 12 17 20 23 28 27 29 35 32 28 31 33 33 35 35 36 37 39 41 39 38 39 39 39 41 43 44 44 43 42 41 40 40 39 37 36 34 33 33 32 31 30 28 27 26 26 26 26 24 24 24 24 22 19 20 20 19 18 18 17 16 15 14 13 12 11 11 11 12 13 12 11 11 10 10
13 11 11 10 8 7 7 8 9 11 10 11 16 18 15 13 10 13 15 11 14 15 14 18 19 22 27 27 28 35 35 30 30 33 33 34 35 38 42 43 42 42 42 43 42 40 42 44 45 45 45 43 42 41 41 40 39 38 36 34 33 33 32 32 31 30 28 27 27 27 27 27 26 27 25 23 21 21 21 20 19 19 18 17 16 14 13 13 13 12 13 13 13 13 12 12 12
14 12 11 10 8 8 9 9 8 10 10 12 16 16 14 12 11 15 19 14 13 18 21 20 18 23 27 27 27 30 34 32 30 32 34 35 37 40 44 46 44 44 45 45 44 42 43 45 46 46 46 44 43 42 42 42 41 39 38 36 35 34 34 33 32 32 30 29 28 27 28 28 28 28 27 25 23 22 22 21 20 20 19 18 17 16 14 14 14 14 14 14 14 14 13 13 14
14 13 11 10 9 8 8 8 9 9 9 13 16 13 11 10 9 13 18 17 16 17 22 24 24 27 27 27 28 28 33 36 33 33 34 36 39 41 42 43 43 45 47 46 45 45 45 46 47 47 47 46 44 43 43 43 42 41 40 38 36 35 35 34 33 33 32 31 30 29 28 28 28 27 27 26 24 22 22 22 21 20 20 19 19 17 16 15 16 16 16 15 15 15 14 15 16
12 12 12 11 10 9 7 8 11 10 8 10 12 10 9 9 8 12 16 18 21 19 18 21 25 30 29 28 31 30 32 40 40 37 35 34 37 39 39 39 41 44 46 46 46 48 48 48 48 48 47 46 45 44 43 43 42 41 41 40 38 37 36 35 34 34 34 33 32 31 30 28 27 26 26 25 25 23 22 22 22 21 20 20 20 19 18 18 17 17 18 17 16 16 16 16 16
10 12 13 12 12 11 7 8 11 11 9 8 8 9 9 9 10 12 15 16 20 21 19 20 20 31 31 29 34 33 31 38 42 39 36 34 35 38 39 40 40 42 46 48 48 50 50 49 49 49 48 46 45 44 43 43 42 42 41 41 40 39 38 37 36 36 35 34 34 33 31 29 28 27 25 24 25 25 24 24 23 22 21 20 20 21 20 20 19 18 19 19 18 17 17 17 17
9 12 13 11 12 12 7 6 8 9 9 7 10 13 11 10 8 10 15 16 17 20 20 20 17 27 30 30 36 37 31 34 42 41 37 36 38 41 43 43 43 44 47 49 49 49 49 48 49 49 49 48 46 45 45 44 43 43 42 42 41 40 40 39 38 37 36 36 36 35 33 31 30 29 26 25 24 25 26 25 26 25 24 22 21 21 21 21 21 20 20 20 19 19 19 18 18
14 11 13 11 10 11 8 7 7 8 8 6 9 12 10 10 9 10 16 17 15 16 19 20 18 19 26 31 37 38 31 32 43 45 41 40 41 41 44 46 46 46 46 46 45 46 46 47 48 48 47 47 46 46 46 45 45 45 44 43 42 41 41 40 40 39 38 38 37 36 35 33 31 30 29 27 26 25 25 26 27 27 26 24 23 22 22 21 22 22 22 21 21 21 21 21 20
17 12 13 11 9 9 9 8 6 7 7 6 8 9 8 8 9 11 14 16 16 16 14 18 19 16 21 30 35 35 30 30 40 44 42 42 39 39 42 45 46 45 44 43 42 42 43 44 47 48 47 46 47 47 47 47 46 46 45 44 44 43 43 42 41 40 40 39 39 38 37 35 33 31 30 29 28 27 26 27 27 28 27 26 25 24 23 23 23 23 23 23 22 23 23 23 23
15 13 12 12 9 8 9 8 8 7 6 5 6 7 7 7 9 13 13 14 16 14 12 13 17 18 21 30 33 33 31 32 36 38 37 38 38 39 42 42 40 39 39 40 40 41 41 41 43 46 47 47 48 48 48 48 47 46 46 45 45 44 44 43 43 42 42 41 40 39 37 36 35 34 32 31 31 30 29 28 28 28 28 28 27 26 26 26 25 25 24 24 24 25 25 25 25
16 12 11 12 11 10 9 9 10 8 7 5 5 5 4 3 5 10 12 13 15 13 13 12 17 21 23 31 35 36 36 36 35 33 33 34 35 37 37 37 36 35 37 39 40 40 41 41 42 45 47 47 48 49 49 48 47 47 47 46 46 45 45 44 44 43 43 42 40 39 38 37 35 35 34 33 32 32 31 30 29 29 29 29 28 28 28 28 28 27 26 26 26 27 27 27 27
Wind_Direction
232 163 146 142 158 192 194 208 254 221 210 268 266 334 250 208 188 154 151 178 207 178 134 88 91 96 96 91 90 71 43 56 94 97 120 144 150 148 146 149 149 146 147 146 142 140 139 137 136 134 136 140 137 135 135 134 133 129 127 126 122 115 110 108 104 101 99 98 96 94 92 88 86 86 87 88 87 86 84 82 80 77 78 77 76 77 77 76 78 80 82 85 86 85 84 83 82
219 159 161 179 189 211 205 199 269 266 212 271 226 219 287 245 201 163 148 153 129 110 103 95 97 97 99 96 89 74 51 68 96 102 121 141 144 145 147 148 148 147 148 146 144 142 141 139 137 136 139 140 137 137 136 135 132 129 129 127 121 115 111 106 103 100 99 98 96 95 92 88 86 85 85 86 85 85 85 84 80 76 74 75 74 75 75 74 76 80 84 84 85 86 85 81 79
190 151 180 209 212 237 290 206 257 308 290 336 241 239 133 225 191 149 153 124 101 100 99 97 89 85 92 85 82 86 81 87 103 112 125 141 143 146 149 147 148 149 148 147 145 144 142 140 139 139 141 141 139 139 137 135 131 130 129 126 121 116 112 106 102 99 98 98 97 95 91 90 87 86 86 85 85 85 86 85 82 78 74 74 73 74 76 74 74 78 82 82 84 86 83 79 79
171 185 196 210 231 262 303 265 261 318 305 245 213 240 205 188 166 154 146 106 92 99 100 94 77 75 88 92 95 95 101 98 108 121 131 146 146 147 148 147 150 150 147 147 146 145 143 141 141 141 142 142 141 139 137 134 131 131 128 125 123 118 113 108 103 99 98 98 96 93 91 90 87 86 85 85 85 85 85 85 83 80 76 76 76 76 77 76 74 76 79 82 83 84 83 83 84
174 205 214 218 251 328 301 264 285 280 244 207 138 214 211 187 167 158 127 104 97 104 103 96 82 81 87 95 104 103 113 112 116 125 133 145 146 146 147 148 150 149 148 147 148 147 145 143 143 143 144 145 143 141 137 134 133 131 127 125 122 118 114 110 105 102 100 96 94 92 90 87 85 84 83 85 85 84 83 83 82 79 78 76 77 77 76 76 78 80 81 83 84 86 88 87 87
179 194 214 235 260 293 279 270 283 262 270 265 157 180 188 185 160 135 118 108 99 106 106 98 96 91 84 86 98 112 123 121 123 130 136 141 144 145 146 149 148 149 149 147 149 149 147 145 145 145 147 147 144 142 138 136 135 130 127 124 120 116 113 111 108 104 99 94 92 90 89 86 84 85 87 87 85 85 83 82 81 79 79 77 75 76 77 77 77 80 81 84 85 89 89 87 87
188 191 209 250 261 260 270 276 271 269 283 271 220 129 154 156 134 121 117 106 96 106 106 100 102 98 92 94 98 109 119 125 129 135 140 140 143 145 146 147 148 151 150 150 151 150 148 146 145 147 149 148 144 142 140 138 134 130 127 122 117 116 114 113 110 104 98 92 89 88 88 88 88 90 90 89 87 85 83 82 82 82 83 84 83 82 81 79 78 81 83 85 87 90 90 87 86
207 217 222 263 272 255 276 279 268 248 247 258 256 101 120 115 114 119 111 104 113 113 104 103 103 97 98 100 99 107 113 124 131 136 140 140 143 144 144 146 148 151 151 153 151 150 148 146 147 148 150 148 146 145 142 140 135 132 127 121 119 119 117 114 110 104 98 94 90 89 89 90 91 91 91 91 88 85 84 84 85 89 91 91 91 89 87 86 85 85 86 87 88 89 90 89 86
215 242 258 269 290 292 278 276 270 240 209 235 155 115 118 110 112 116 112 124 140 114 103 108 105 102 102 99 101 112 115 125 130 135 139 141 145 145 145 149 150 149 152 154 152 151 149 148 150 150 151 150 148 147 144 140 136 134 127 123 123 122 118 113 107 101 98 97 95 94 91 90 90 89 89 88 87 86 87 88 91 95 95 93 92 92 91 89 88 87 86 86 87 87 87 86 86
199 233 272 346 296 291 286 285 274 195 169 192 130 123 109 117 120 112 112 122 124 108 104 109 106 107 108 102 106 119 124 129 132 135 140 142 144 145 147 153 154 152 152 154 154 153 151 151 152 152 153 152 150 149 146 142 138 135 129 126 125 122 117 110 104 100 100 102 101 99 93 91 90 88 87 86 87 88 89 92 95 97 96 93 90 90 89 87 87 86 85 84 85 87 85 84 84
190 227 315 344 291 290 303 304 289 166 145 161 145 152 140 126 121 116 120 114 115 112 113 115 110 111 109 102 109 128 132 133 135 137 142 142 143 145 147 153 157 156 154 153 155 154 153 153 154 156 156 154 153 151 147 143 140 136 132 129 125 121 114 109 106 105 107 108 108 101 93 89 87 87 86 85 85 88 92 95 97 98 97 92 87 84 83 82 81 82 84 84 84 84 84 81 81
200 156 145 257 269 295 307 310 298 339 80 128 128 128 107 107 113 119 126 120 122 119 119 124 118 116 112 107 119 133 137 138 139 139 142 143 146 148 146 149 153 156 155 154 155 155 155 155 156 159 157 156 156 154 151 146 142 138 136 131 127 121 114 112 111 113 114 112 109 101 92 85 84 86 85 84 83 85 90 96 100 98 98 92 85 81 79 77 75 77 78 81 83 84 85 82 82
218 120 124 274 298 304 306 293 277 357 0 278 116 97 93 110 113 120 126 126 129 123 124 130 127 122 114 118 131 139 141 144 142 142 145 143 145 146 146 147 146 151 155 156 157 157 158 157 159 159 157 157 158 157 154 150 145 143 140 135 131 124 118 115 114 115 115 109 104 99 92 87 84 84 85 84 82 82 84 93 100 99 99 94 87 83 78 74 71 71 71 74 78 83 86 83 86
224 165 156 278 295 296 301 286 261 126 262 237 112 109 132 121 101 112 122 126 125 127 134 135 130 119 117 126 139 146 145 146 145 146 148 146 143 142 147 150 143 147 155 159 159 159 160 160 160 159 158 158 160 161 158 154 149 147 145 141 136 130 125 118 110 105 109 109 100 95 93 91 85 83 84 84 81 79 80 89 100 104 104 98 93 86 78 73 71 71 70 72 76 82 87 86 89
228 199 190 262 277 286 285 274 277 230 211 159 117 109 119 105 99 104 116 125 122 130 138 137 137 129 136 144 149 153 148 147 148 146 147 148 145 140 147 151 146 148 156 160 161 162 161 161 163 162 163 163 163 164 163 160 155 153 151 149 144 138 135 123 106 90 96 109 101 94 92 92 85 83 83 82 79 74 78 87 99 112 112 107 97 84 76 72 72 70 68 71 77 81 86 88 88
231 233 241 276 264 265 264 265 265 224 175 122 130 131 120 101 106 101 112 127 130 137 144 142 151 150 149 149 147 150 148 148 149 146 146 147 147 143 146 149 150 150 155 162 163 165 163 164 167 167 168 167 167 168 169 166 162 160 158 158 155 150 146 132 108 78 84 108 104 99 95 94 84 79 83 86 81 76 78 85 97 118 124 118 100 85 73 69 73 68 62 69 76 80 83 85 86
232 245 255 258 265 263 267 275 313 308 91 116 131 128 133 113 109 112 117 126 133 144 152 154 158 150 149 148 144 147 148 149 150 148 146 147 149 147 149 150 150 152 155 161 165 166 166 167 170 173 172 169 171 173 174 172 168 166 166 167 166 164 160 146 121 79 83 109 108 111 104 96 85 77 84 83 81 84 78 79 92 111 125 124 105 89 74 71 76 60 53 62 71 79 83 83 85
228 234 242 247 256 272 302 305 311 315 311 138 135 134 146 131 114 128 128 122 131 143 141 143 146 142 145 144 144 146 149 152 153 153 149 149 150 148 152 153 151 154 156 158 163 166 167 170 173 176 173 171 176 177 178 177 174 173 173 175 177 178 174 165 145 95 91 117 119 129 128 116 97 85 87 86 85 93 85 79 86 99 122 128 114 97 82 78 77 65 54 52 59 67 74 80 82
223 229 245 240 224 288 313 302 305 312 295 297 135 158 156 122 121 145 140 123 132 135 122 118 126 132 137 142 146 148 150 154 156 157 155 153 153 151 153 155 153 154 157 159 161 167 172 174 176 178 175 173 179 179 181 181 179 179 179 182 186 189 187 182 175 148 132 136 145 150 144 140 116 97 92 94 94 95 89 80 81 101 126 131 122 103 89 88 84 77 62 50 53 56 64 76 79
216 227 247 228 202 278 277 282 306 304 288 305 259 161 149 130 139 163 145 132 137 132 124 124 128 134 139 144 149 151 153 157 157 159 159 157 157 156 156 158 158 158 157 159 161 166 174 176 176 179 177 176 180 181 182 183 184 184 184 187 192 197 198 195 199 201 177 159 173 171 153 148 130 121 112 98 101 113 94 85 90 111 131 138 127 105 111 118 95 74 68 66 66 57 61 75 68
207 223 233 184 179 239 260 283 308 286 248 257 265 154 146 154 149 167 144 136 142 136 139 136 136 142 145 149 152 155 157 158 159 161 161 161 160 160 160 159 159 161 160 158 162 165 171 173 174 178 177 176 181 182 183 185 187 188 187 191 196 199 201 200 205 206 192 181 187 180 161 163 159 142 125 120 126 128 102 90 104 125 143 146 128 125 147 118 84 60 69 83 84 75 67 51 18
218 234 214 159 170 208 252 270 278 275 253 204 302 22 207 177 153 163 127 128 175 134 142 141 142 147 149 152 154 158 160 161 162 163 163 164 164 162 164 162 158 161 163 163 165 166 169 169 171 179 178 177 181 181 185 186 187 190 189 192 197 198 199 198 201 205 204 196 189 175 168 174 168 134 132 162 170 135 113 92 101 129 152 145 133 135 130 74 78 70 66 68 52 73 68 37 13
226 240 223 175 181 192 185 228 254 270 259 159 125 232 247 194 152 165 128 155 189 141 143 143 145 149 150 154 157 161 164 165 166 166 167 166 167 165 163 167 165 164 166 167 169 168 170 170 173 180 178 178 180 177 183 188 186 187 190 192 193 195 196 196 199 203 207 201 192 176 164 173 172 155 177 195 184 149 124 104 113 131 158 141 132 114 102 80 80 75 54 32 28 47 38 20 29
227 238 241 200 186 186 176 209 251 271 263 202 178 186 199 187 160 180 147 155 159 141 142 143 147 151 152 156 161 166 167 167 168 168 169 168 169 169 165 168 169 170 169 170 172 172 171 174 179 182 180 181 182 179 184 190 185 181 189 195 189 189 193 196 201 203 205 204 197 185 160 168 185 179 187 204 194 172 133 123 130 138 173 131 100 88 133 113 86 89 63 31 20 20 27 34 58
226 235 249 226 206 201 182 200 249 264 260 256 235 195 191 180 157 210 172 137 135 139 139 143 150 154 156 161 165 168 169 169 170 170 171 170 169 169 168 169 171 173 174 172 172 174 175 178 184 186 184 185 185 183 185 192 185 177 188 196 185 186 193 199 208 200 199 203 192 188 170 165 185 184 184 202 215 208 159 151 133 140 187 75 75 68 145 94 73 87 93 82 266 283 59 62 73
220 229 240 237 234 214 179 189 228 241 243 240 239 232 205 155 139 227 196 150 142 142 142 148 153 157 159 164 167 168 171 172 171 171 173 172 172 172 171 172 171 175 177 173 173 178 179 179 183 187 186 185 186 183 183 190 185 177 189 195 185 188 189 194 214 204 193 200 192 189 179 166 179 179 185 203 213 224 197 164 132 138 188 73 77 57 54 66 50 68 120 143 143 48 59 60 67
226 230 236 239 247 239 204 198 213 227 233 233 234 236 215 162 155 210 187 163 154 145 149 157 157 159 161 165 168 168 172 174 173 173 173 175 176 175 174 175 174 174 175 174 177 180 180 181 182 185 186 184 184 184 183 189 186 180 190 194 186 192 189 184 207 209 193 199 203 198 186 180 182 179 188 203 207 222 209 177 148 135 117 72 43 359 41 34 16 38 350 322 59 97 56 36 73
237 235 236 240 247 249 238 223 217 225 228 228 236 239 229 193 186 199 170 165 162 153 154 160 161 161 163 167 167 169 174 174 174 175 176 177 179 178 176 178 177 175 175 177 180 180 179 182 182 183 186 187 185 185 185 186 187 184 191 194 189 198 195 185 195 203 195 197 209 212 195 189 190 186 188 199 211 220 202 175 154 148 140 140 273 328 3 353 358 17 348 20 102 153 102 59 67
242 237 238 240 243 243 239 235 224 225 227 221 230 241 233 213 210 201 170 166 167 161 157 161 164 161 164 167 166 170 175 174 176 178 178 178 179 181 180 180 179 178 179 181 183 180 178 180 181 181 187 191 187 186 187 187 188 188 191 194 191 199 200 190 189 197 203 202 210 216 203 195 198 204 202 202 211 211 197 182 171 181 200 240 251 345 338 311 339 355 356 69 77 25 79 77 69
244 236 236 237 239 239 234 237 230 224 226 218 222 232 223 212 211 205 172 167 170 161 159 166 166 162 165 166 166 171 175 177 179 179 179 179 179 182 183 182 181 180 179 180 181 181 181 181 181 181 187 194 189 185 189 188 188 188 192 194 194 200 201 194 189 195 207 206 213 221 212 204 203 212 217 214 210 205 206 197 196 215 220 221 227 305 291 236 225 226 18 53 99 52 60 46 87
241 232 231 235 238 236 223 229 231 226 218 213 222 232 223 216 205 201 179 170 172 162 161 168 165 164 165 167 169 173 178 180 181 182 181 179 179 181 183 183 182 182 179 179 181 180 181 183 183 182 187 195 190 186 189 190 189 188 191 193 196 202 200 197 192 197 208 206 218 225 216 212 207 214 220 214 209 206 211 204 203 209 211 220 219 254 257 247 248 199 45 88 143 105 93 32 61
231 228 224 225 234 242 227 219 217 220 212 207 220 234 225 234 208 194 181 172 173 164 160 164 165 168 167 169 173 176 180 181 182 186 183 180 180 182 182 182 183 184 182 180 181 181 180 182 184 183 187 194 191 187 190 192 189 189 191 191 197 203 198 198 193 195 209 205 215 225 215 213 211 214 218 213 209 209 210 208 219 222 225 247 233 229 240 234 250 276 30 212 23 94 98 55 58
219 226 226 222 221 230 238 225 207 205 209 203 217 235 218 239 216 187 176 172 175 166 161 171 178 176 173 174 176 179 180 181 185 188 186 183 182 183 183 182 183 185 185 182 182 181 181 182 184 184 186 192 191 187 190 193 190 190 192 189 196 204 198 197 194 193 208 207 212 226 219 213 214 214 217 216 211 212 213 207 221 240 246 254 243 233 224 209 214 171 124 229 129 98 95 67 78
210 216 225 228 226 223 229 238 208 195 203 202 209 226 216 219 204 180 173 169 182 184 170 173 184 179 173 175 176 177 180 182 186 189 189 186 183 184 185 184 183 185 185 184 184 182 180 183 184 184 188 191 190 187 190 192 190 192 194 189 194 204 200 195 197 194 202 208 208 222 226 215 215 216 216 218 213 212 215 212 218 229 241 250 245 242 215 212 218 158 143 170 134 115 123 116 101
214 212 218 225 232 233 222 226 210 191 200 206 207 217 217 206 176 177 185 181 190 200 175 162 176 188 177 174 175 176 181 184 187 191 192 188 185 185 184 185 184 184 185 184 187 184 179 183 183 183 189 191 188 188 190 191 189 192 193 190 193 203 201 193 199 198 198 206 206 218 231 220 214 215 214 216 213 210 209 216 225 225 235 241 238 245 209 221 241 164 175 173 135 122 126 111 105
226 218 217 220 224 237 232 221 203 191 199 210 211 212 214 208 185 182 202 205 191 180 175 163 170 190 182 172 176 179 182 184 185 188 192 191 188 186 185 185 183 184 186 185 189 187 182 184 184 183 189 191 189 188 191 190 191 195 195 194 197 204 203 193 196 201 200 203 204 218 228 221 215 213 213 215 213 211 209 215 228 231 242 250 248 246 203 206 219 184 195 170 104 109 117 113 132
241 231 219 222 220 229 237 226 198 194 204 211 213 215 213 211 203 185 189 212 196 160 174 174 168 181 180 175 179 180 183 185 184 185 191 195 190 189 188 186 185 185 187 187 190 191 185 186 188 185 189 192 190 190 192 191 191 196 197 198 201 207 208 198 193 196 202 203 202 217 227 222 218 215 215 217 214 213 211 214 226 233 244 253 258 255 221 198 196 183 165 118 103 110 108 117 137
242 248 235 227 222 224 235 231 200 193 207 209 210 219 216 207 210 195 184 207 210 176 170 167 170 177 176 182 181 179 185 183 183 185 188 193 192 191 190 188 188 186 187 188 189 191 185 186 190 188 189 193 192 192 193 192 191 196 199 199 202 209 212 207 200 194 196 204 205 216 230 227 220 218 217 218 217 214 212 215 226 234 237 234 235 242 234 214 203 189 171 139 140 139 125 141 159
234 246 249 239 225 217 228 234 210 191 205 203 202 218 223 210 208 205 197 203 212 205 179 163 174 183 177 183 180 177 188 183 183 188 186 190 192 191 191 191 191 188 188 188 188 190 186 185 190 188 188 192 193 192 192 192 193 197 201 202 202 205 214 216 211 203 194 198 208 217 230 230 220 219 220 219 219 217 214 217 227 234 232 229 227 225 223 223 212 193 184 162 157 157 150 171 177
230 234 241 245 239 227 220 226 212 197 212 212 203 215 223 219 215 211 209 207 206 214 200 167 170 181 180 181 180 178 184 183 183 187 188 190 190 191 191 191 193 191 189 189 187 190 188 186 191 190 187 191 194 194 194 193 194 198 200 205 203 197 212 220 214 212 203 196 206 216 227 230 221 220 221 221 221 219 218 219 227 233 230 228 224 221 218 214 203 191 185 170 166 163 145 151 146
229 231 233 238 239 241 241 228 210 195 204 216 217 220 219 219 223 219 212 211 203 201 207 175 166 176 180 178 184 182 182 183 183 185 189 191 191 192 193 192 193 193 192 191 188 188 189 189 193 192 187 190 194 196 197 194 193 196 196 198 196 186 202 215 205 209 208 202 204 213 227 231 224 221 223 224 221 220 219 220 227 231 235 239 229 223 220 210 197 189 187 177 171 159 149 178 159
224 227 233 238 237 239 246 245 225 202 197 205 219 232 222 214 222 225 215 216 206 188 198 188 168 173 180 180 184 184 183 185 184 186 189 191 192 193 193 191 192 195 195 193 189 190 192 191 193 193 189 188 192 196 199 196 193 196 195 194 193 188 195 208 208 207 206 208 206 209 227 234 226 221 223 226 223 220 219 218 226 229 235 244 242 237 225 212 195 186 188 184 182 164 166 228 205
225 219 223 235 242 240 240 242 236 226 209 199 207 225 228 216 219 222 218 218 210 189 193 194 177 174 178 180 183 183 184 185 185 188 189 190 192 191 193 194 194 196 196 194 191 192 194 193 193 194 192 189 191 196 200 198 195 197 198 198 199 199 199 205 214 212 206 211 208 204 224 237 229 221 224 227 224 222 220 219 226 229 233 237 239 238 227 214 194 189 192 190 199 178 171 205 214
228 218 213 222 235 241 242 242 240 240 229 206 201 207 223 233 222 218 221 223 218 201 195 197 187 180 178 177 179 183 184 183 184 188 191 192 191 191 195 196 195 195 195 193 192 194 196 195 195 196 195 192 192 196 200 199 197 196 198 199 200 204 205 206 215 216 206 207 208 202 216 235 234 222 224 229 228 225 221 218 223 226 230 233 232 228 223 214 198 195 195 193 207 194 178 193 200
225 224 218 215 221 231 240 246 252 251 248 230 205 199 211 230 221 218 222 224 225 212 203 206 192 182 185 182 178 183 185 183 184 186 190 193 193 194 196 195 194 195 196 196 193 195 198 198 198 197 197 196 194 196 200 200 200 200 200 201 202 204 207 207 211 215 207 201 208 208 211 227 237 229 225 226 228 228 222 220 221 223 227 232 233 229 223 215 207 205 203 202 208 201 198 198 191
217 225 232 221 214 219 229 238 250 251 251 249 228 214 217 227 215 215 218 219 227 218 203 212 194 179 188 189 178 181 185 182 184 187 191 195 196 196 196 195 193 193 199 200 195 194 197 199 198 197 198 199 196 197 200 201 202 203 204 205 206 206 207 207 207 214 213 203 206 210 208 216 232 237 231 225 227 230 226 222 222 223 225 232 235 234 228 217 213 210 207 211 214 209 214 209 197
208 218 232 228 217 212 217 226 236 245 241 240 242 236 233 243 231 222 222 208 218 226 204 206 202 178 184 192 176 173 179 179 183 189 193 195 196 195 195 196 195 195 201 203 198 193 194 197 198 198 199 200 198 198 201 204 203 205 207 208 209 209 207 206 205 212 218 213 208 210 209 208 220 235 237 227 223 228 228 223 223 224 223 228 232 232 229 221 218 215 209 212 217 219 220 218 219
205 208 218 219 214 208 212 213 214 232 235 225 234 237 233 238 233 234 241 207 204 228 215 206 207 180 178 190 176 166 174 182 185 190 193 194 196 197 197 199 198 198 201 203 200 194 193 197 199 198 199 200 199 199 203 206 205 205 209 210 210 210 209 206 206 210 216 219 215 213 213 209 212 224 233 228 221 225 228 223 222 224 223 224 227 228 226 222 221 218 216 216 216 221 222 223 231
202 203 206 212 200 189 208 212 209 225 234 223 223 227 233 240 235 236 245 223 201 217 226 221 206 178 176 188 181 168 172 184 187 188 190 191 193 196 198 199 198 197 200 203 200 194 194 198 200 200 200 200 201 202 204 207 207 208 211 212 211 211 212 210 210 211 214 220 221 216 215 215 212 216 225 229 225 223 226 224 220 221 223 223 223 226 224 220 219 216 219 220 217 221 222 226 236
198 202 200 207 196 185 204 210 216 225 226 225 223 222 230 239 236 233 238 236 217 210 216 220 200 180 181 183 179 171 170 181 187 183 186 190 194 198 199 198 197 197 199 201 199 195 196 198 201 201 201 201 202 204 206 207 209 212 213 215 214 213 215 216 215 216 216 220 224 222 219 219 219 219 223 229 230 226 226 228 225 221 224 225 222 224 224 220 218 215 219 224 222 224 222 224 236
197 204 203 209 202 197 205 205 215 225 220 217 219 222 230 232 227 225 230 234 236 228 214 207 194 184 180 174 177 179 173 178 184 183 187 193 196 199 200 198 198 199 200 200 198 197 197 199 201 202 202 202 203 204 207 209 211 214 216 217 218 218 219 219 219 220 220 221 224 227 223 220 223 226 227 229 231 229 228 231 233 227 224 226 226 224 223 222 219 216 218 223 226 227 225 226 234
195 199 206 212 205 205 214 214 216 221 225 212 211 222 229 238 237 224 225 221 224 235 230 214 194 178 176 177 183 187 179 178 183 186 189 193 195 198 200 200 200 200 200 200 198 198 199 200 201 203 204 204 205 206 208 211 213 215 217 219 220 220 221 221 222 223 224 224 225 228 228 225 224 228 232 232 230 230 229 230 235 235 227 226 228 228 226 224 221 218 219 223 225 227 228 230 234
186 196 210 208 204 215 225 224 218 217 227 218 211 223 220 234 240 221 224 223 214 215 226 233 198 168 175 185 182 186 185 178 180 188 194 194 194 197 201 203 203 200 200 202 200 199 200 201 202 203 204 205 207 209 210 213 215 216 218 220 220 221 222 222 223 224 225 226 227 227 228 228 225 224 229 232 231 228 227 227 232 237 235 230 229 230 229 227 224 222 222 226 226 226 230 232 236
191 192 206 203 204 219 231 236 222 213 226 220 213 223 214 213 224 212 215 223 221 207 207 230 208 167 179 188 177 182 191 179 176 185 194 196 197 199 200 204 206 204 203 202 201 201 200 202 204 206 206 207 209 210 212 214 216 217 218 219 220 220 222 222 223 224 225 226 227 226 226 227 227 224 222 227 231 229 227 225 228 234 238 237 233 231 231 230 228 227 226 228 229 229 231 233 238
220 197 192 200 207 206 210 234 230 217 227 221 219 229 221 206 205 211 210 207 223 219 197 212 219 187 186 185 173 178 189 179 172 178 187 192 196 200 200 202 206 206 204 203 201 200 201 203 206 210 211 212 211 211 212 214 216 218 218 219 220 219 220 221 222 224 225 226 228 227 225 226 228 228 223 222 227 231 230 226 226 230 235 239 237 234 234 233 232 231 229 230 230 231 233 234 237
226 217 194 200 215 204 199 219 230 229 225 215 223 232 234 222 197 199 207 194 207 227 203 197 215 208 182 171 168 177 188 181 171 174 182 185 189 195 198 200 203 203 201 201 200 199 199 202 205 210 213 213 213 212 212 214 215 218 219 219 220 219 220 221 221 223 225 226 227 226 226 226 227 230 229 225 224 228 231 229 227 228 230 234 238 236 236 236 234 234 233 233 232 232 234 235 236
214 220 202 193 203 208 204 209 219 236 235 217 223 223 230 238 198 190 204 190 187 217 218 191 205 210 176 163 170 178 184 183 173 174 180 182 187 192 196 199 201 201 199 198 199 199 198 200 203 209 212 212 214 213 213 215 216 218 220 220 220 220 220 221 222 223 225 226 227 226 227 228 228 230 232 230 228 227 228 230 230 229 228 232 237 238 238 237 235 235 234 234 234 233 234 233 234
202 211 210 197 194 201 206 206 207 221 240 240 238 234 239 254 193 184 194 183 172 198 220 195 197 208 181 167 175 179 183 188 182 180 181 182 187 189 190 193 195 200 202 198 199 199 198 199 202 207 211 213 214 214 215 217 218 220 220 221 222 222 221 222 222 223 224 225 226 226 227 227 228 230 231 231 232 230 227 228 229 231 230 231 235 237 237 238 237 236 235 233 233 232 232 231 230